Flag for Poland Weather past 2 weeks in Warsaw, Poland

Now
75 °F

Passing clouds.


Feels Like: 76 °F
Forecast: 58 / 86 °F
Wind: 2 mph from North

Location: Warsaw Okecie Airport

Current Time: Jul 6, 2015 at 1:35:16 PM

Latest Report: Jul 6, 2015 at 1:00 PM


Visibility: N/A

Pressure: 29.95 "Hg

Humidity: 78%

Dew point: 68 °F

Location of WarsawLocation

Historic Weather in Warsaw — Graph

°F

Warsaw temperature yesterday

Maximum temperature yesterday: 95 °F (at 4:00 PM)
Minimum temperature yesterday: 61 °F (at 2:30 AM)
Average temperature yesterday: 80 °F

Past Weeks' High & Low Weather Summary

 TemperatureHumidityPressure
High95 °F (Jul 5, 4:00 PM)100% (Jun 25, 3:30 AM)30.42 "Hg (Jun 25, 3:30 AM)
Low46 °F (Jun 25, 3:30 AM)23% (Jul 5, 3:00 PM)29.71 "Hg (Jun 23, 3:00 AM)
Average67 °F61%30.08 "Hg
* Reported Jun 21 12:00 Noon — Jul 6 12:30 PM, Warsaw, Weather by CustomWeather, © 2015

Note: Actual official high and low records may vary slightly from our data, if they occured in-between our weather recording intervals... More about our weather records

Advertising

Warsaw weather history for previous 24 hours

 ConditionsComfort  
Time TempWeatherWind HumidityBarometerVisibility
12:30 PM
Mon, Jul 6
75 °FSprinkles. Scattered clouds.3 mph74%29.95 "HgN/A
12:00 PM82 °FSprinkles. Scattered clouds.12 mph48%29.95 "HgN/A
11:30 AM86 °FPassing clouds.14 mph43%29.95 "HgN/A
11:00 AM88 °FPassing clouds.9 mph40%29.92 "HgN/A
10:30 AM90 °FPassing clouds.8 mph38%29.92 "HgN/A
10:00 AM90 °FPassing clouds.9 mph41%29.92 "HgN/A
9:30 AM90 °FPassing clouds.10 mph38%29.92 "HgN/A
9:00 AM86 °FPassing clouds.6 mph46%29.92 "HgN/A
8:30 AM82 °FSunny.6 mph48%29.92 "Hg10 mi
8:00 AM81 °FSunny.7 mph48%29.92 "Hg10 mi
7:30 AM77 °FSunny.7 mph54%29.95 "Hg10 mi
7:00 AM73 °FSunny.5 mph57%29.95 "Hg10 mi
6:30 AM72 °FSunny.3 mph61%29.95 "Hg10 mi
6:00 AM70 °FSunny.3 mph64%29.95 "Hg10 mi
5:30 AM66 °FSunny.3 mph73%29.95 "Hg10 mi
5:00 AM68 °FClear.3 mph64%29.95 "Hg10 mi
4:30 AM66 °FClear.5 mph68%29.95 "Hg10 mi
4:00 AM68 °FClear.3 mph64%29.95 "Hg10 mi
3:30 AM70 °FClear.3 mph60%29.95 "Hg10 mi
3:00 AM68 °FClear.5 mph64%29.95 "Hg10 mi
2:30 AM68 °FClear.5 mph64%29.95 "Hg10 mi
2:00 AM70 °FClear.5 mph60%29.95 "Hg10 mi
1:30 AM70 °FClear.3 mph60%29.98 "Hg10 mi
1:00 AM72 °FClear.5 mph61%29.98 "Hg10 mi
12:30 AM70 °FClear.5 mph64%29.98 "Hg10 mi
12:00 AM72 °FClear.2 mph61%29.98 "Hg10 mi
11:30 PM
Sun, Jul 5
72 °FClear.3 mph61%29.98 "Hg10 mi
11:00 PM73 °FClear.5 mph57%29.98 "Hg10 mi
10:30 PM77 °FClear.3 mph51%29.98 "Hg10 mi
10:00 PM75 °FClear.6 mph54%29.98 "Hg10 mi
9:30 PM81 °FSunny.5 mph42%29.98 "Hg10 mi
9:00 PM82 °FSunny.5 mph40%29.98 "Hg10 mi
8:30 PM79 °FSunny.1 mph48%29.98 "Hg10 mi
8:00 PM86 °FSunny.2 mph35%29.98 "Hg10 mi
7:30 PM90 °FSunny.5 mph29%29.98 "Hg10 mi
7:00 PM91 °FSunny.6 mph28%29.98 "Hg10 mi
6:30 PM91 °FPassing clouds.3 mph26%30.01 "HgN/A
6:00 PM91 °FSunny.7 mph26%30.01 "Hg10 mi
5:30 PM93 °FSunny.2 mph24%30.01 "Hg10 mi
5:00 PM91 °FSunny.3 mph26%30.01 "Hg10 mi
4:30 PM93 °FSunny.3 mph24%30.01 "Hg10 mi
4:00 PM95 °FSunny.2 mph23%30.01 "Hg10 mi
3:30 PM93 °FSunny.3 mph26%30.01 "Hg10 mi
3:00 PM93 °FPassing clouds.5 mph23%30.04 "HgN/A
2:30 PM93 °FPassing clouds.5 mph28%30.04 "HgN/A
2:00 PM91 °FSunny.6 mph26%30.04 "Hg10 mi
1:30 PM91 °FSunny.3 mph28%30.07 "Hg10 mi
1:00 PM91 °FSunny.5 mph26%30.07 "Hg10 mi
Weather by CustomWeather, © 2015

See weather overviewHow to use our weather pages